RH
37 37 37 37 37 37 36 36 36 35 35 35 35 35 35 34 34 34 34 34 33 32 31 31 30 30 29 29 29 29 29 28 28 28 27 27 27 27 28 28 28 29 29 30 31 32 33 34 35 36 37 38 39 41 42 44 45 46 47 47 47 48 48 48 49 49 49 48 48 48 49 49 50 51 52 54 55 57 59 62 64 66 70 74 77
41 41 41 40 40 40 39 39 39 39 40 40 40 40 39 39 40 39 39 38 37 37 36 36 35 35 34 34 33 33 32 31 30 29 29 28 27 27 26 26 25 25 24 24 24 24 24 25 25 26 27 28 29 30 32 33 35 37 39 40 41 42 43 44 45 46 47 47 47 47 47 47 47 46 46 46 47 48 50 51 53 55 58 61 64
43 43 43 42 42 42 41 41 41 42 42 42 42 41 42 42 43 43 42 42 41 41 41 41 40 40 40 39 39 38 37 37 36 35 34 33 33 32 31 30 29 27 27 26 25 24 23 23 22 22 22 22 22 23 23 23 25 26 27 28 30 31 33 34 36 37 38 39 40 41 42 43 43 43 44 44 45 44 44 44 45 46 47 49 51
39 38 38 38 37 36 36 35 35 35 35 35 34 34 35 35 35 35 34 34 34 34 34 34 34 34 34 34 34 34 33 33 33 33 33 33 33 33 33 33 32 31 30 30 29 29 28 27 26 25 24 24 23 23 22 22 22 22 22 22 22 23 23 24 25 27 29 30 30 31 33 34 35 36 37 38 40 41 42 42 42 42 43 44 45
33 32 32 32 32 31 31 30 30 30 30 31 31 31 31 31 31 31 31 32 32 32 32 32 32 32 32 32 31 30 29 29 28 28 27 27 26 26 26 26 26 26 27 27 28 28 29 29 28 28 28 27 27 27 26 25 24 24 24 24 23 23 22 22 22 22 23 24 24 24 24 26 27 28 30 31 32 33 35 37 38 38 39 41 42
34 34 35 34 33 32 32 33 34 35 36 37 38 38 39 39 39 40 40 40 40 40 40 40 40 40 39 39 38 37 36 35 33 32 31 29 27 25 24 22 21 21 20 20 20 21 22 22 23 24 25 26 27 28 28 29 28 28 28 28 27 26 25 24 24 23 23 24 25 24 22 22 22 22 23 24 25 26 28 29 31 33 33 34 35
38 39 41 41 38 35 35 37 39 40 41 42 43 44 44 44 44 43 43 43 43 43 42 42 42 41 41 40 40 40 39 38 37 36 35 33 32 30 27 25 23 22 20 19 18 17 17 16 17 17 18 19 19 21 23 24 26 27 28 30 30 29 29 28 27 26 26 25 26 26 25 24 23 23 23 22 22 22 22 23 23 26 28 28 29
44 44 45 44 41 38 38 39 41 41 41 42 42 42 42 41 41 40 40 40 40 40 40 40 39 38 38 38 38 38 38 38 37 36 34 33 31 29 28 27 26 25 23 22 20 18 17 16 15 15 14 15 15 15 16 16 18 19 21 23 24 26 27 28 30 30 30 29 28 28 28 28 26 24 24 23 23 23 23 22 21 21 22 24 24
55 55 52 47 42 40 41 43 44 43 42 42 42 42 41 41 40 39 38 39 39 39 38 38 38 38 38 38 38 38 39 40 39 37 34 31 29 26 25 24 23 23 22 22 21 19 18 17 16 15 14 14 13 13 13 13 14 14 14 15 16 18 19 20 23 25 27 28 28 29 29 30 30 29 27 25 24 24 24 24 24 22 21 22 23
60 60 56 49 45 44 46 50 51 48 45 46 45 46 46 45 43 42 40 40 39 39 39 40 40 40 40 41 41 42 43 43 42 40 37 34 31 27 24 22 21 20 20 20 20 20 19 18 17 17 16 15 14 14 13 13 12 12 12 12 13 13 13 14 15 16 17 18 20 22 23 24 26 28 28 27 26 24 24 24 25 25 23 22 22
56 56 54 51 50 51 55 58 57 53 51 52 52 52 53 51 50 49 48 46 44 43 43 43 44 44 45 45 45 46 47 47 47 46 43 40 36 31 27 25 23 22 22 21 22 22 21 20 19 17 17 16 16 15 14 14 14 13 13 13 12 12 12 12 12 12 12 12 12 13 14 15 16 18 20 22 23 23 22 23 24 25 25 25 24
51 52 52 52 53 54 56 57 56 55 55 56 56 56 57 56 56 57 56 54 51 49 48 48 48 48 48 49 50 51 53 54 54 52 50 45 40 34 30 28 26 25 24 24 24 23 23 23 21 19 17 17 16 16 15 15 14 14 14 14 13 13 13 13 13 12 12 12 11 10 10 9 10 10 11 12 14 15 16 18 19 20 22 23 24
52 54 54 55 56 57 58 58 59 59 59 59 59 60 61 61 62 63 64 62 59 57 56 55 54 53 53 54 56 58 60 61 61 59 55 48 41 35 31 30 29 28 27 26 25 24 24 24 23 22 20 18 17 16 16 15 15 15 15 15 14 14 14 13 13 13 13 12 12 11 11 10 9 8 8 8 8 8 9 10 12 13 15 16 18
62 62 62 62 63 64 65 65 65 64 64 64 64 64 65 67 70 73 74 71 66 65 65 63 61 60 61 62 63 66 67 68 67 65 59 49 41 36 34 34 34 33 32 30 29 27 25 24 24 24 23 21 20 18 17 17 16 16 16 16 16 15 15 14 14 13 13 12 12 12 11 11 10 10 9 9 8 8 7 7 8 8 9 10 11
71 69 69 69 69 69 69 69 69 69 68 69 70 70 72 74 77 79 79 76 72 71 71 69 67 66 66 67 69 71 72 72 72 68 60 48 40 36 37 38 38 37 35 33 31 29 27 26 25 25 24 23 22 21 20 19 18 18 17 16 17 16 16 15 15 14 13 13 12 12 11 11 11 11 10 10 9 9 8 8 8 8 7 7 7
73 71 70 71 71 72 74 74 73 72 73 75 75 76 78 77 78 80 81 80 78 77 75 73 70 68 69 71 73 75 76 77 76 69 57 45 38 37 38 40 39 37 35 33 31 30 28 28 26 26 25 24 24 23 22 21 20 19 18 18 18 17 16 16 15 14 14 13 13 12 12 11 11 11 11 10 10 10 9 9 8 8 8 7 7
72 72 71 73 75 76 78 77 75 75 76 78 80 81 82 83 85 87 87 85 84 83 79 76 73 71 73 76 78 80 80 81 79 69 54 43 38 38 40 41 40 38 36 34 32 30 29 28 27 26 26 25 25 24 23 22 21 21 20 20 19 18 18 17 16 15 14 13 13 12 12 11 11 11 10 10 10 9 9 9 8 8 7 7 7
72 73 75 78 80 81 80 78 77 78 80 83 87 89 90 92 94 91 89 89 88 85 82 78 75 75 78 82 84 85 85 85 81 67 52 43 41 41 43 43 41 39 38 36 34 32 30 28 27 26 26 26 26 25 24 23 22 22 21 21 20 20 19 18 17 16 15 14 13 13 12 12 11 11 10 10 10 9 9 8 8 8 7 7 7
71 74 77 79 80 80 80 80 80 83 87 91 94 96 96 96 93 89 87 87 85 84 81 77 76 79 83 86 88 88 89 88 78 61 49 44 44 45 45 45 44 42 41 39 37 35 32 30 27 25 25 25 25 25 25 24 23 22 21 21 21 20 19 18 17 17 16 15 14 13 12 12 11 11 11 10 10 9 9 9 8 7 7 7 6
73 75 76 76 76 76 79 81 83 88 93 96 98 99 98 95 90 86 84 83 83 83 79 76 77 81 85 88 90 91 90 83 68 54 47 46 47 48 47 46 45 43 42 41 39 36 33 29 26 24 23 23 23 23 24 24 23 22 21 20 19 19 19 18 17 16 15 15 14 13 12 11 11 11 11 10 10 9 8 8 8 7 7 6 6
75 75 75 74 74 78 83 86 88 92 97 98 98 98 96 92 87 84 81 81 82 80 77 75 78 83 87 89 91 92 85 71 57 50 49 49 50 50 49 48 46 45 44 42 39 35 32 28 25 23 21 21 21 21 22 22 22 21 20 18 18 17 17 17 16 15 14 14 13 12 11 11 10 10 10 9 9 8 8 7 7 6 6 6 6
76 76 75 75 79 85 90 91 91 94 98 97 95 94 91 87 83 81 80 80 80 78 76 76 81 86 89 91 92 86 72 59 51 50 51 51 52 51 50 48 47 46 44 41 38 33 29 25 22 20 19 19 19 19 20 20 20 19 18 17 17 16 16 16 15 15 14 13 12 11 11 10 9 9 8 8 7 6 6 6 6 6 5 5 5
77 76 75 78 84 89 90 89 89 92 94 92 90 89 86 83 80 78 78 78 78 78 77 80 85 89 92 93 88 73 58 52 52 53 54 54 53 52 51 50 48 47 44 40 36 30 25 21 19 18 17 17 18 18 18 19 18 18 17 16 16 16 16 16 16 15 14 13 12 11 11 10 9 8 8 7 6 6 6 5 5 5 5 5 5
78 76 75 80 85 87 86 87 89 90 90 88 87 84 82 81 79 76 76 77 78 79 81 85 89 93 94 89 75 60 53 53 55 56 56 56 55 53 52 51 49 47 44 38 32 26 21 19 17 17 17 17 17 17 18 18 17 17 17 16 17 17 17 17 16 14 13 12 12 11 10 9 8 7 7 6 6 6 5 5 6 5 5 5 5
77 75 75 80 83 82 83 86 87 87 87 86 84 82 82 81 79 77 77 78 80 82 86 89 93 96 92 77 62 55 55 56 57 58 58 57 55 54 53 52 49 46 41 34 27 22 18 17 17 17 17 17 17 17 17 17 17 17 17 17 17 18 17 17 15 13 12 11 11 10 9 7 7 6 6 6 6 6 6 5 5 5 5 5 5
78 76 78 81 83 83 84 85 84 85 86 86 85 84 84 84 81 80 79 81 84 86 89 94 98 95 80 64 56 56 57 59 59 60 59 57 56 55 53 52 48 43 35 28 22 19 18 17 17 17 17 17 17 17 17 17 17 17 17 17 18 17 17 15 14 13 12 11 10 9 7 6 6 6 6 6 6 6 6 6 5 5 5 5 5
80 81 84 86 87 88 87 87 86 88 89 89 88 88 89 87 85 83 83 85 87 89 93 97 95 81 65 57 57 58 59 61 61 60 59 58 57 56 54 51 45 37 29 22 19 18 18 18 18 18 17 17 17 17 17 17 18 18 18 18 17 16 15 14 13 12 11 10 9 7 7 7 6 6 6 6 6 6 6 6 6 5 5 5 5
83 89 91 91 92 92 92 91 90 92 93 91 90 91 91 90 88 87 87 87 89 93 96 91 78 65 59 58 60 61 62 62 62 61 60 59 58 57 53 47 39 30 24 20 20 19 19 19 19 18 18 18 18 18 18 18 19 19 18 17 17 16 15 15 14 13 11 9 8 7 7 7 7 7 7 7 6 6 6 6 6 6 6 5 5
91 96 95 95 96 98 97 95 95 96 95 93 93 94 94 92 91 90 89 89 93 96 89 75 63 59 60 61 62 63 63 63 62 62 60 60 58 54 48 40 31 25 22 21 21 20 20 20 19 19 20 20 20 20 20 19 19 18 17 16 16 16 16 16 14 12 10 8 8 8 8 7 7 7 7 7 7 7 7 7 6 6 5 5 4
100 100 99 100 101 100 99 99 99 98 96 95 96 96 96 95 94 91 90 93 94 85 72 62 59 61 62 63 64 64 64 63 63 62 61 59 55 48 40 32 26 22 22 21 21 21 21 21 21 21 21 21 21 21 20 20 19 17 17 16 17 17 17 16 14 11 9 8 8 8 8 7 7 7 7 7 7 7 7 7 6 5 5 5 4
103 103 103 105 104 101 101 102 101 99 99 100 99 99 100 97 93 92 93 92 83 70 62 61 62 64 65 65 65 65 65 64 63 62 60 56 50 41 33 26 23 22 22 22 22 22 22 22 22 22 22 22 22 21 20 19 18 17 17 17 18 19 17 15 12 10 9 9 9 9 8 8 7 7 7 7 7 7 7 6 6 5 5 5 5
103 104 105 106 105 104 104 104 104 103 103 102 102 102 101 96 94 94 90 80 69 62 63 64 66 67 68 68 67 67 67 66 64 62 58 52 43 34 27 24 23 23 23 23 23 23 23 23 23 23 22 22 21 20 19 19 18 17 17 18 19 19 17 14 12 10 10 9 9 9 8 8 8 7 7 7 7 7 7 6 6 6 6 6 6
104 104 105 106 105 106 107 107 105 105 104 104 105 104 101 98 95 88 77 67 63 65 67 68 70 71 70 70 70 69 68 67 64 60 53 45 36 28 24 24 23 23 24 24 24 24 24 24 23 23 23 22 21 19 19 19 19 19 18 18 18 16 14 13 12 11 11 10 9 9 8 8 8 7 7 7 7 8 8 8 7 7 6 6 6
105 106 107 108 108 109 109 107 105 104 104 105 105 103 100 95 85 73 64 63 66 69 71 72 74 74 73 73 72 70 68 65 61 55 46 37 29 25 23 24 24 24 24 24 25 25 25 24 23 23 23 22 20 19 19 20 21 20 19 18 16 14 12 12 12 12 11 11 10 9 9 8 8 7 6 6 7 8 9 9 9 8 7 6 6
107 109 109 110 109 108 107 106 104 104 106 108 105 98 90 79 67 62 63 66 70 72 74 76 77 76 75 75 73 70 66 61 55 47 38 30 25 23 23 24 25 25 25 26 26 26 25 24 23 22 23 22 20 19 20 22 22 21 18 16 13 12 12 12 12 11 11 11 11 10 9 9 8 7 7 7 7 8 9 9 9 8 7 6 5
109 109 109 108 106 105 106 106 106 106 107 105 97 84 71 62 60 63 67 70 73 75 77 79 78 77 76 74 70 66 61 55 48 39 31 26 23 23 24 25 26 26 27 28 27 26 25 24 23 22 23 23 21 20 22 23 23 20 16 14 13 13 13 12 12 11 11 11 11 10 9 8 8 8 8 8 8 9 9 9 8 7 6 6 5
110 107 106 105 104 104 106 108 110 107 98 87 75 64 58 59 62 66 70 73 75 77 79 79 78 77 75 71 66 61 55 48 40 32 26 23 23 24 25 26 27 28 28 28 27 26 25 24 23 23 23 23 23 22 23 23 21 17 14 13 13 13 13 12 11 11 12 11 11 10 9 9 9 9 9 9 9 9 9 8 7 6 6 6 5
108 105 104 105 106 104 102 102 100 91 77 67 61 58 60 63 67 71 74 75 77 79 80 79 77 76 72 67 62 56 49 42 34 27 24 23 24 25 26 27 29 29 29 28 27 26 26 24 24 23 23 24 24 24 23 21 17 14 13 13 14 14 13 12 12 12 12 11 11 10 9 9 9 9 9 9 9 8 8 8 7 6 6 5 5
107 106 103 102 99 94 88 83 77 69 63 62 62 63 65 68 71 75 76 76 79 81 79 78 76 72 67 62 57 51 44 36 29 24 23 24 25 26 28 29 29 29 29 27 26 27 26 25 23 23 23 24 25 24 21 17 15 13 13 14 14 13 12 12 12 12 12 12 11 11 10 9 9 9 9 9 8 8 7 7 7 7 7 6 6
99 94 85 80 76 72 70 67 64 63 64 64 66 67 69 71 73 76 76 78 80 79 77 76 72 66 62 57 52 46 38 30 25 24 24 25 26 27 29 30 30 29 28 27 26 27 26 25 23 23 23 24 24 22 18 14 14 14 14 14 14 13 12 12 12 12 12 12 12 11 10 9 9 9 8 8 8 7 7 7 7 7 7 7 7
71 63 57 56 57 59 61 62 63 64 65 66 68 69 70 71 74 75 77 79 79 76 74 70 65 60 56 52 46 39 32 26 24 24 26 26 27 28 29 30 29 28 27 26 26 26 26 25 23 22 23 23 21 19 15 14 14 15 15 14 13 12 12 12 12 13 13 13 12 11 10 9 8 8 8 7 8 8 7 8 8 8 8 8 9
48 46 46 49 53 57 60 61 63 64 65 66 67 68 70 72 73 75 78 78 75 71 68 63 58 54 51 45 39 32 26 24 24 25 27 27 27 29 29 29 28 27 26 26 26 26 26 26 25 24 23 21 18 16 14 14 15 16 16 14 12 12 12 12 12 13 13 13 13 11 9 8 8 7 7 7 8 8 8 8 7 8 10 11 12
44 44 46 50 54 57 58 60 63 63 63 65 66 68 70 71 72 76 77 74 69 65 61 56 52 49 44 39 33 27 24 24 25 26 27 27 28 29 29 28 27 26 27 27 27 26 26 26 26 25 23 20 16 15 15 15 16 16 15 14 12 12 12 12 12 13 14 14 13 11 9 8 7 7 7 7 8 8 8 8 9 10 12 14 15
45 45 47 52 55 57 58 61 62 62 62 64 67 69 70 70 73 75 73 67 62 58 53 50 47 43 38 32 28 25 24 25 26 27 28 28 28 29 28 27 27 26 27 28 27 26 26 26 26 25 22 18 16 15 16 16 16 16 14 13 13 12 12 12 12 13 13 13 13 11 8 7 7 7 7 8 8 8 8 9 11 13 15 17 17
46 46 49 52 55 56 59 61 62 61 63 65 68 69 69 70 72 71 66 60 55 50 47 45 42 37 31 27 25 24 24 25 26 27 28 28 29 28 27 27 27 27 27 28 26 25 25 25 25 23 21 18 17 17 17 17 16 16 14 13 13 13 12 12 12 12 13 12 12 10 8 7 7 8 8 8 8 8 9 12 14 16 17 17 19
47 48 50 52 54 57 59 61 61 61 63 67 68 68 67 68 68 64 58 52 47 44 42 40 36 30 26 24 24 24 25 26 27 27 28 29 29 28 28 27 26 26 27 27 26 26 25 23 22 21 19 18 19 20 20 19 17 16 14 14 14 13 12 12 12 12 11 11 11 9 8 7 8 8 8 8 9 10 12 14 15 16 17 18 20
47 48 50 52 54 56 58 59 60 61 64 66 67 64 63 63 61 55 49 45 41 38 37 34 30 25 23 22 24 25 25 26 27 27 28 29 29 29 29 28 26 26 26 27 26 26 24 21 20 19 18 19 22 23 22 20 18 15 14 14 14 13 13 12 11 11 10 10 9 9 8 8 8 8 9 9 11 13 14 16 16 15 16 18 19
45 47 50 51 52 54 55 56 58 59 61 63 62 59 57 55 52 47 43 39 35 33 32 29 25 22 22 23 24 25 26 27 27 27 28 28 29 29 30 29 27 25 25 26 25 24 21 19 19 18 19 21 24 25 24 21 19 16 15 15 15 14 13 12 11 10 11 10 9 8 8 9 9 9 11 12 14 16 17 17 16 15 16 17 17
43 45 47 48 48 49 50 52 53 55 56 57 55 51 49 46 44 41 37 32 30 29 28 25 23 22 22 23 24 25 27 27 27 27 28 29 29 29 30 30 28 26 25 24 22 20 19 18 18 19 20 22 26 26 23 19 18 16 15 15 14 13 12 10 9 10 11 11 9 8 8 9 10 12 14 15 17 18 19 19 19 19 19 18 18
38 39 40 41 42 43 44 46 47 49 50 49 47 43 41 39 38 36 32 28 27 26 25 23 22 22 23 24 25 26 27 27 27 28 28 29 30 29 28 28 28 27 25 21 19 18 17 17 18 20 21 22 24 23 20 18 16 15 14 14 14 13 11 9 9 10 11 10 9 9 9 11 13 16 17 18 19 20 21 21 20 19 19 18 18
31 32 33 33 34 36 38 39 40 42 42 41 39 37 34 34 34 31 27 25 24 23 22 22 22 22 23 25 26 27 27 27 28 28 29 31 31 30 28 26 25 24 22 19 17 17 16 17 19 20 22 23 23 22 20 19 18 16 15 15 14 12 10 9 9 11 10 9 9 11 12 14 17 19 20 20 21 20 20 20 20 20 21 20 19
Wind_Speed
66 67 68 69 70 70 71 72 73 73 74 75 76 77 78 79 80 82 83 85 87 88 90 92 93 95 97 99 101 103 105 107 110 112 114 116 117 119 121 123 125 127 129 131 133 135 137 139 140 142 143 145 146 147 148 149 149 150 151 151 152 152 152 152 152 153 153 153 153 154 154 155 155 155 155 155 154 154 154 154 154 154 154 154 154
62 63 64 65 66 67 68 68 69 70 71 72 73 75 76 77 78 80 82 83 85 86 88 90 92 94 95 97 99 101 103 105 107 109 111 112 114 116 117 119 121 123 124 126 127 129 131 132 134 135 137 139 140 142 143 145 146 148 149 151 152 153 154 154 155 155 156 157 157 157 157 158 158 158 158 157 157 157 157 157 157 157 157 157 157
60 60 61 62 63 64 65 65 66 67 68 70 71 72 73 75 77 78 80 81 83 84 86 88 90 92 94 96 98 100 102 104 106 108 110 111 113 115 117 118 119 121 122 123 125 126 127 128 129 131 132 133 134 136 137 138 139 141 143 144 146 148 150 151 152 154 155 157 158 159 160 161 161 161 161 160 160 160 160 160 160 160 160 160 160
57 57 58 59 60 60 61 61 62 63 64 65 66 68 69 70 72 73 75 76 78 79 81 83 85 87 89 91 94 96 98 100 103 105 107 110 111 114 115 117 119 120 121 122 124 125 126 127 128 129 129 130 131 133 134 134 135 136 137 138 140 141 142 144 145 146 148 151 153 154 156 158 159 161 162 162 163 163 163 164 163 163 162 163 163
52 53 53 53 54 54 55 55 56 57 58 59 60 62 63 65 66 67 68 70 71 73 75 77 79 81 83 85 88 90 92 95 97 100 102 105 107 110 112 114 117 118 120 121 122 124 125 126 127 128 129 129 130 131 132 133 134 134 135 136 138 138 139 140 140 141 141 144 146 148 150 151 152 155 156 157 159 161 162 163 164 165 166 166 166
47 47 48 49 50 49 50 50 51 52 53 55 56 58 59 60 62 63 64 65 67 69 71 73 74 77 79 81 83 86 88 91 93 95 98 101 103 106 108 110 112 114 116 118 119 121 122 124 125 127 128 129 130 131 132 133 134 134 134 136 137 138 138 139 139 140 140 141 142 144 145 146 146 148 149 150 152 154 156 158 159 162 164 166 167
45 45 45 47 48 48 48 48 49 50 51 53 54 55 56 58 59 60 61 63 64 66 68 70 72 74 75 77 79 82 84 86 88 91 93 96 99 101 104 106 108 110 112 114 115 117 118 120 121 123 125 126 128 129 130 132 133 134 135 136 137 138 139 139 140 140 141 141 141 142 144 145 145 146 146 147 148 148 150 152 153 154 156 160 163
48 47 47 47 48 47 47 47 49 50 51 52 53 54 56 57 58 60 61 62 64 66 67 69 71 72 73 75 76 78 79 81 84 86 88 91 93 96 99 101 104 105 107 109 111 113 114 115 117 118 120 122 123 125 126 128 130 131 133 134 136 137 138 139 140 141 142 142 143 143 144 145 146 146 146 147 147 147 148 149 150 151 151 152 155
49 50 49 49 48 48 48 49 50 52 53 53 54 55 56 58 59 60 62 63 65 66 68 69 70 72 73 74 75 76 78 79 81 82 84 86 88 91 93 95 97 99 101 103 105 107 109 110 112 114 115 117 118 120 122 123 125 126 128 130 131 133 135 137 138 140 141 143 144 144 145 146 147 148 148 148 148 147 147 148 150 151 150 150 151
50 51 51 51 50 50 51 52 53 54 55 55 56 57 59 60 61 63 64 65 67 68 69 70 71 72 73 74 75 77 78 79 80 81 82 84 85 87 89 90 91 93 94 95 97 100 102 104 106 108 110 112 113 115 116 118 120 121 123 124 126 128 130 132 133 135 137 139 141 143 144 145 146 148 149 150 149 149 148 148 150 151 151 151 151
53 53 53 53 52 53 54 55 57 57 57 58 59 60 61 63 64 65 67 68 69 70 71 72 74 75 75 76 77 78 79 80 81 82 82 83 84 85 86 87 87 88 89 90 91 92 95 98 100 102 104 105 107 109 110 112 114 116 118 119 121 123 125 127 129 130 132 134 136 138 140 142 143 145 146 148 149 150 150 149 150 151 151 151 152
55 55 54 54 55 56 57 58 59 60 60 61 62 63 64 65 67 68 69 71 72 73 74 75 76 77 78 79 80 81 82 83 84 84 84 84 84 84 84 84 85 85 86 87 88 88 90 92 95 97 98 100 101 103 105 106 108 110 111 113 115 117 120 122 124 126 128 130 132 134 136 137 139 140 142 143 145 146 148 148 149 150 151 151 152
57 57 56 57 58 59 60 61 62 62 63 63 64 65 67 68 69 70 72 73 75 76 77 78 79 80 81 82 83 84 85 85 86 86 86 85 84 83 83 83 84 84 85 86 87 87 88 89 91 93 95 95 97 98 100 101 102 104 106 108 110 112 114 116 119 121 123 125 127 129 131 133 134 136 137 138 139 141 142 144 145 147 148 149 150
60 59 59 59 60 62 63 63 64 64 65 65 66 67 68 69 71 72 74 76 77 78 80 81 82 83 83 84 85 86 87 88 88 88 88 86 84 83 83 83 84 85 85 86 87 88 88 88 89 90 92 93 94 95 96 98 99 100 102 103 105 107 109 111 113 116 118 120 122 124 126 128 129 131 132 133 134 135 136 137 139 141 142 144 145
63 62 62 63 63 64 65 66 66 66 66 67 68 69 70 71 73 74 76 78 79 81 82 83 84 84 85 86 87 88 89 90 90 90 89 87 85 83 83 83 84 85 86 87 87 88 89 89 89 89 90 91 92 93 94 96 97 98 100 100 102 103 105 107 109 111 113 115 117 119 120 122 124 125 126 128 129 130 132 133 134 135 136 138 139
64 64 65 65 66 67 67 68 68 68 68 68 70 71 72 74 75 76 78 80 81 83 84 84 85 86 87 88 89 90 91 92 92 91 90 87 85 83 83 83 84 85 86 87 87 88 89 89 89 90 90 91 92 93 94 95 96 97 99 100 101 102 103 105 106 107 109 110 112 114 115 117 118 120 121 123 125 126 127 129 130 131 132 133 134
65 65 65 66 67 67 68 68 68 69 69 70 71 73 74 75 77 78 80 82 83 84 85 86 87 88 89 90 91 92 93 93 93 92 90 88 85 84 84 84 85 85 86 87 88 88 89 89 90 90 91 92 92 93 94 95 96 97 98 99 101 102 103 104 105 106 106 107 108 110 111 113 114 115 117 119 120 122 124 125 126 128 128 129 130
64 65 66 66 66 67 68 68 69 69 70 71 73 74 76 77 78 80 82 83 85 86 86 87 88 89 90 91 92 93 94 94 94 92 90 88 86 85 84 85 85 86 86 87 88 89 90 90 91 91 91 92 93 93 94 95 96 97 98 99 101 102 103 104 105 105 106 106 107 108 109 110 111 112 113 115 116 118 119 121 122 124 125 126 126
64 64 65 65 66 66 67 68 69 70 71 73 74 76 77 79 81 82 84 85 86 87 87 88 89 90 91 92 94 95 95 95 94 92 90 88 86 86 86 86 87 87 88 89 90 90 91 91 92 92 92 92 93 94 95 95 96 97 98 99 100 102 103 104 104 105 105 106 106 107 108 109 110 110 111 112 113 114 115 117 118 120 121 122 123
63 63 64 65 65 66 67 69 70 71 72 74 76 77 79 81 83 85 86 87 87 88 89 90 90 92 93 94 95 96 96 95 93 91 89 88 87 87 88 88 88 88 89 90 91 92 92 93 93 93 93 93 93 94 94 95 96 97 98 99 100 101 102 103 103 103 104 104 105 106 107 107 107 108 109 110 111 112 113 114 115 116 117 118 119
63 63 64 64 65 66 68 70 71 72 74 76 78 80 82 84 85 87 87 88 89 89 90 91 92 93 95 96 97 97 96 94 92 90 89 88 88 89 89 89 89 90 91 92 93 93 94 94 94 93 93 93 93 94 94 95 96 96 97 98 99 100 100 101 101 101 102 102 103 104 104 104 104 104 105 106 107 108 109 110 111 112 113 114 115
64 64 65 65 66 68 69 71 73 74 76 78 80 82 84 86 87 88 89 89 90 91 92 93 94 95 96 97 98 97 95 93 91 90 89 90 90 90 90 90 90 91 92 93 94 94 94 94 94 94 93 93 93 93 94 94 95 96 96 97 97 98 98 99 99 99 100 100 100 101 101 101 100 100 101 102 102 103 103 104 105 107 108 109 110
66 66 66 66 68 70 71 73 75 76 79 81 83 85 86 88 89 89 89 90 92 93 93 94 95 96 97 98 97 95 93 91 90 90 90 91 91 91 90 90 91 92 93 94 95 95 95 94 93 92 92 92 92 92 93 93 94 94 95 95 95 96 96 97 97 98 98 98 98 98 98 98 97 97 98 98 99 99 99 99 100 102 103 104 106
68 68 68 69 70 72 74 76 78 79 82 84 85 87 88 89 90 91 91 92 93 94 94 95 96 98 98 97 96 93 92 91 91 91 91 92 91 91 91 91 92 93 94 95 95 95 94 93 92 91 90 90 90 91 91 92 92 92 92 93 93 94 94 95 96 96 96 95 95 95 96 95 94 94 94 94 95 95 96 96 97 98 100 100 102
70 70 70 71 73 75 77 79 81 82 84 86 87 89 90 91 92 92 93 93 94 95 96 97 98 99 98 96 94 92 91 91 91 91 92 91 91 91 91 92 93 94 95 95 95 94 93 91 90 89 88 88 88 88 89 89 89 89 90 90 91 91 92 93 94 94 93 93 92 92 92 91 90 90 90 90 91 92 92 93 95 96 96 97 98
72 73 73 75 77 79 81 82 84 85 87 88 89 91 92 93 94 94 94 94 95 96 97 98 99 99 97 95 93 92 91 91 92 91 91 91 91 91 92 93 94 95 95 95 94 92 90 89 88 87 86 86 86 86 86 87 87 87 87 88 88 89 89 90 91 91 91 90 89 89 89 88 87 86 87 87 89 89 90 91 92 93 94 94 95
75 76 77 78 80 82 84 86 87 88 89 90 91 92 94 94 95 96 96 96 97 98 99 99 99 97 95 93 92 92 92 92 91 91 91 91 91 92 93 94 94 95 94 93 91 89 88 86 85 85 84 84 84 84 85 84 85 85 85 86 86 86 87 88 89 89 89 88 87 86 86 86 86 85 85 86 87 88 89 90 91 92 92 93 94
78 79 81 83 84 86 88 89 90 91 92 93 93 94 95 96 97 97 98 98 99 100 100 99 97 95 93 92 92 92 92 92 91 91 91 91 92 92 93 94 94 93 92 90 88 87 85 84 83 83 83 83 83 83 83 83 83 83 83 83 83 84 85 86 86 87 87 86 85 84 84 85 85 84 84 85 86 87 88 89 90 90 91 92 92
81 83 85 86 88 89 91 92 93 94 94 95 95 96 96 97 98 99 100 100 101 101 100 98 96 94 93 92 92 92 92 91 91 91 92 92 92 93 93 93 92 91 89 88 86 84 83 82 82 81 81 82 82 82 82 82 82 82 81 81 81 81 82 84 85 85 85 85 84 83 84 84 84 83 83 83 84 86 87 88 89 89 89 90 90
84 87 88 90 91 93 94 95 96 96 96 96 96 97 98 99 100 101 101 101 101 100 98 96 95 94 93 92 92 91 91 91 91 92 92 92 92 93 92 92 90 89 87 85 84 82 82 81 81 81 81 81 81 81 81 81 80 80 79 78 79 80 81 82 83 84 84 84 83 83 84 84 83 83 82 82 83 84 86 87 87 87 87 88 88
88 90 92 93 95 96 96 97 98 97 97 97 97 98 99 101 101 102 102 101 100 99 97 95 94 93 93 92 91 91 91 91 92 92 92 92 92 92 91 90 88 86 85 83 82 81 81 80 80 80 81 81 81 80 80 79 79 78 77 76 77 78 80 81 82 82 83 84 83 83 83 84 83 82 81 81 81 82 84 85 86 85 85 85 85
92 94 95 97 98 98 99 99 98 98 98 98 99 100 101 102 103 103 102 100 99 97 96 94 93 93 92 92 91 91 91 92 92 92 92 92 92 91 89 87 86 84 83 82 81 80 80 80 80 80 80 80 80 79 78 78 78 77 76 75 75 76 78 80 82 82 83 83 83 83 82 82 83 82 80 79 79 80 82 84 84 83 83 82 82
96 97 99 100 100 100 99 99 99 99 99 99 100 102 103 104 103 102 100 98 97 96 95 94 93 92 92 91 92 92 92 92 92 92 92 91 90 89 87 85 84 83 82 81 80 80 80 80 79 79 80 80 79 78 77 77 76 76 75 75 75 75 76 79 81 82 82 83 83 83 82 82 81 80 79 77 76 77 80 81 82 81 80 80 79
98 99 100 100 100 100 99 99 99 99 100 101 102 104 104 104 102 100 99 97 96 95 94 93 93 92 92 92 92 92 92 92 92 92 91 90 89 87 85 83 83 82 81 80 80 80 80 79 79 79 79 79 79 77 76 76 76 76 75 74 75 75 76 78 79 80 80 81 82 82 82 82 81 79 78 76 74 73 75 77 78 79 78 77 77
99 99 100 99 99 100 100 100 100 101 102 103 104 105 104 102 100 98 97 96 95 94 93 93 93 92 92 92 93 93 92 92 91 91 90 89 87 85 83 82 81 81 80 80 80 79 79 79 78 78 77 78 78 76 75 75 76 75 75 74 75 76 77 78 78 78 78 79 80 81 81 80 79 79 78 75 72 71 72 73 74 75 76 75 75
98 99 99 99 100 100 101 101 102 103 103 104 104 103 102 99 98 97 96 95 94 93 93 93 93 93 93 93 93 92 92 91 91 90 89 87 85 83 81 81 80 80 80 80 79 79 78 78 77 77 76 77 77 75 74 74 75 75 74 74 75 76 76 77 77 77 77 78 79 80 79 77 77 76 76 74 71 69 70 71 71 72 73 73 74
98 99 99 100 101 101 102 102 103 104 104 103 102 101 99 97 96 96 95 94 93 93 93 93 93 93 93 93 92 92 91 91 90 89 87 85 83 81 80 80 80 80 79 79 79 78 78 77 77 76 75 75 76 75 74 74 74 74 74 74 75 75 76 76 76 76 77 77 78 78 77 75 74 74 73 72 70 68 67 69 70 71 71 72 71
99 100 101 102 102 103 103 103 103 103 102 101 100 99 97 96 96 95 95 94 93 93 93 93 93 93 93 92 92 91 91 90 89 87 85 83 82 80 80 79 79 79 79 78 77 77 77 77 76 76 74 74 75 75 75 74 74 74 73 74 74 75 74 74 74 75 76 76 76 77 75 73 71 71 70 69 68 66 65 67 69 70 71 71 69
101 102 102 103 103 102 102 102 101 101 100 100 99 98 97 96 95 95 94 93 93 93 94 94 93 93 92 92 91 91 90 89 87 86 84 82 81 80 79 79 79 78 78 77 77 76 77 76 75 74 74 73 73 74 75 75 74 74 74 73 74 74 73 73 73 74 74 74 75 75 74 71 69 68 68 67 66 65 64 64 67 69 70 70 68
101 102 102 101 101 100 100 100 100 99 99 99 98 97 96 95 94 94 94 93 93 94 93 93 93 92 91 91 90 90 89 87 86 84 83 81 80 79 79 78 78 77 77 76 76 76 76 76 75 73 73 72 72 74 75 75 75 75 74 73 73 73 72 71 71 72 72 73 73 73 72 70 68 66 66 66 65 64 63 63 65 67 67 67 66
100 100 99 98 98 98 98 98 98 98 98 97 97 96 95 94 93 93 93 93 94 93 93 92 92 91 90 90 89 88 87 86 84 83 82 81 80 79 78 78 77 76 76 75 75 75 75 75 74 73 72 72 72 73 75 76 76 75 75 74 73 72 71 70 70 70 71 71 72 72 71 69 66 64 64 63 63 63 62 62 63 64 65 65 64
97 97 96 95 95 96 96 96 96 96 96 96 95 94 94 93 92 92 93 93 93 92 92 91 90 89 89 88 88 87 86 84 83 82 81 80 79 78 78 77 76 75 75 75 75 75 74 74 73 73 72 72 72 73 75 76 76 75 75 75 73 71 70 69 68 68 69 70 71 72 70 68 65 63 63 62 61 61 61 61 61 60 61 62 63
96 95 94 94 94 94 95 94 94 94 94 94 94 93 92 92 91 92 93 93 91 90 90 89 88 88 88 87 86 85 84 83 82 81 80 80 78 77 77 76 75 74 74 74 75 74 73 73 72 72 72 72 73 74 75 75 74 74 75 75 73 71 70 68 66 66 67 68 70 71 70 67 64 62 62 61 60 59 59 58 58 58 59 60 61
95 94 93 93 93 93 93 93 93 93 93 92 92 92 91 91 91 91 92 91 90 89 88 87 87 87 86 85 84 83 83 82 81 80 79 79 77 76 75 75 74 74 73 74 74 73 72 72 71 71 72 73 74 74 75 75 74 74 74 74 73 71 70 68 65 64 65 66 68 70 70 67 63 61 60 59 59 58 56 55 56 56 57 58 59
94 93 92 92 92 92 92 92 92 91 91 91 91 91 91 90 90 91 91 90 88 87 87 86 86 85 84 83 82 82 81 80 79 79 78 77 77 75 75 74 73 73 72 73 73 72 71 70 70 70 72 74 75 75 75 75 74 75 74 73 72 71 70 68 65 64 64 64 66 69 68 65 62 60 59 58 57 56 54 54 54 54 55 56 57
94 93 92 91 91 91 91 91 91 90 90 90 91 91 89 89 89 90 89 88 87 86 85 85 84 83 82 81 81 81 80 79 78 77 76 76 75 75 74 74 73 72 71 72 72 72 71 70 69 70 71 73 74 75 75 75 74 74 74 73 72 71 70 68 65 64 62 63 65 67 66 63 60 59 58 56 56 55 53 53 53 53 53 54 55
93 92 91 90 90 90 90 90 89 89 89 89 90 89 88 88 88 88 87 86 85 84 83 83 82 82 80 79 79 79 79 78 77 76 75 74 74 74 74 73 73 71 71 71 70 71 70 69 69 70 71 72 73 74 74 75 74 74 73 73 72 72 71 68 65 63 62 62 63 64 62 60 59 57 56 55 54 54 53 53 53 52 51 52 53
91 91 90 90 89 89 88 88 87 87 87 88 88 87 86 86 86 86 85 84 83 82 82 81 80 80 79 78 78 78 78 77 76 75 74 73 73 73 73 73 73 71 70 69 69 69 69 69 69 70 71 71 71 72 72 73 73 73 72 72 71 71 70 68 64 61 61 63 64 61 58 57 57 55 54 54 53 53 53 53 53 52 52 52 53
90 89 89 88 88 87 86 86 85 84 85 85 85 85 84 84 84 84 84 83 81 80 80 79 79 78 78 77 77 77 77 76 75 74 73 73 73 72 72 72 72 71 70 69 68 68 68 68 69 70 70 69 70 71 71 70 71 71 70 70 70 71 69 66 62 58 57 61 63 60 56 55 54 53 52 52 52 53 53 53 53 53 53 53 53
88 87 86 86 85 84 83 83 82 82 82 83 83 82 81 81 82 82 82 80 79 78 78 78 78 77 77 76 76 76 75 74 73 73 72 72 72 72 72 71 71 70 70 69 68 67 68 68 69 69 69 68 68 69 70 70 69 69 69 69 70 70 68 64 61 58 57 59 59 58 55 53 52 51 51 51 51 52 53 53 53 53 52 52 52
84 84 83 82 81 80 80 79 79 79 80 80 80 80 79 79 80 81 80 78 77 77 77 77 76 76 76 76 75 75 74 73 72 72 71 71 72 72 72 71 70 69 69 68 68 67 68 68 68 68 67 67 66 67 68 69 69 69 68 68 69 69 66 62 59 58 59 58 56 54 54 52 51 50 51 51 51 52 52 53 53 53 53 52 52
Wind_Direction
271 271 271 270 270 270 270 270 271 271 271 271 271 271 271 271 271 271 271 270 270 270 270 270 269 269 269 269 269 268 268 268 268 267 267 267 267 266 266 266 265 265 264 264 264 263 263 263 262 262 262 261 261 261 260 260 260 260 260 259 259 259 259 258 258 258 258 257 257 257 256 256 256 255 254 254 253 253 253 253 252 252 252 251 251
272 272 272 272 272 272 273 273 273 273 273 273 273 273 273 273 273 273 272 272 272 272 272 272 271 271 271 271 270 270 270 269 269 269 269 268 268 268 267 267 266 266 266 265 265 265 264 264 264 263 263 263 262 262 261 261 261 260 260 260 260 259 259 259 259 258 258 258 258 257 257 257 257 256 256 255 255 254 254 253 253 252 252 252 251
275 275 275 276 276 276 277 277 278 278 277 277 277 277 277 276 276 275 275 275 275 274 274 274 273 273 273 273 272 272 272 272 271 271 270 270 270 269 269 268 267 267 267 266 266 266 265 265 265 264 264 264 264 263 263 262 262 262 261 261 260 260 260 259 259 259 259 258 258 258 257 257 257 257 257 256 256 256 255 255 254 254 253 253 252
277 277 278 278 278 279 279 279 279 279 278 278 278 277 277 277 277 277 277 277 277 276 276 276 276 276 275 275 275 274 274 274 274 273 273 272 272 271 271 270 270 269 268 268 267 267 267 266 266 265 265 265 264 264 264 263 263 262 262 262 262 261 261 260 260 259 259 259 259 258 258 257 257 257 257 257 256 256 256 256 255 255 254 254 253
276 277 278 278 278 279 279 279 279 279 279 279 279 279 279 279 280 280 280 280 280 280 280 280 279 279 279 279 279 278 278 277 277 276 276 275 274 273 273 272 271 271 270 270 269 269 268 268 267 267 266 266 265 265 265 264 264 263 263 263 262 262 261 261 260 260 259 260 260 259 258 258 257 257 257 257 256 256 256 256 256 255 255 254 254
278 280 280 280 280 279 280 281 282 282 282 282 282 282 282 282 282 282 282 282 281 281 281 280 280 280 279 279 279 279 279 279 278 278 278 277 277 276 275 274 273 273 272 271 270 270 269 269 268 268 268 267 266 266 265 265 265 264 264 263 263 263 262 262 261 261 260 260 260 260 259 259 258 258 257 257 257 256 256 255 255 256 255 255 254
282 282 282 282 282 282 283 284 284 283 282 282 281 281 282 282 282 282 282 281 281 281 280 280 280 279 279 279 279 279 279 279 278 278 278 278 277 277 276 276 275 275 274 273 272 271 270 270 269 268 268 268 267 267 266 266 265 265 264 264 264 263 263 263 263 262 261 261 260 260 260 260 259 258 258 257 257 256 256 256 255 255 255 255 255
287 286 284 283 284 285 285 286 285 284 283 282 282 282 283 283 283 284 284 284 284 283 283 283 283 282 282 282 282 282 282 281 281 280 280 279 278 277 276 276 275 275 275 275 274 273 273 272 271 270 269 268 268 267 267 266 266 265 265 265 264 264 264 263 263 263 263 262 261 261 261 261 260 260 259 258 257 257 257 256 256 255 254 254 255
287 287 287 286 286 287 287 288 287 286 285 285 285 286 286 287 287 287 287 288 288 287 287 287 287 287 287 287 287 287 287 286 286 285 283 282 281 279 278 276 275 275 274 274 274 274 273 273 272 272 271 270 269 268 268 267 267 266 266 265 265 265 264 264 264 263 263 262 262 262 261 261 261 261 260 259 259 258 257 257 257 256 255 254 254
285 286 287 288 289 289 290 291 290 288 288 289 289 289 290 290 291 291 292 292 292 292 292 292 292 292 292 292 292 292 291 291 290 289 288 287 286 283 281 279 278 276 275 274 274 274 274 273 273 272 272 271 270 270 269 268 268 267 267 266 266 265 265 265 264 264 264 263 263 262 262 261 261 260 261 260 260 259 258 258 258 257 257 256 255
285 286 288 289 289 290 290 290 290 290 291 291 291 292 293 293 294 295 295 296 296 296 296 297 296 296 296 296 296 296 296 295 294 294 293 291 289 287 285 283 281 279 278 277 276 276 275 275 274 273 272 272 271 271 270 269 268 268 267 267 266 266 266 265 265 265 265 264 264 263 263 262 261 261 260 260 260 260 260 259 258 258 258 257 257
285 286 288 288 289 289 289 290 290 291 292 292 293 293 294 295 296 297 297 298 298 299 299 299 299 299 299 299 299 299 299 298 298 297 296 294 292 289 287 285 284 282 281 279 278 277 277 277 276 275 274 273 272 272 271 271 270 269 268 268 267 266 266 265 265 265 265 265 264 264 264 263 263 262 262 261 261 260 260 260 259 259 258 258 258
286 287 288 289 289 290 290 291 291 292 292 293 294 294 295 296 297 297 298 298 299 300 300 300 301 301 301 301 301 301 301 300 299 299 297 295 293 291 289 287 286 285 284 283 281 280 279 278 278 278 277 275 274 273 272 272 271 270 270 269 269 268 267 267 266 266 265 265 265 264 264 264 264 264 263 263 262 261 261 260 260 260 259 259 258
289 289 290 290 291 291 291 291 291 291 292 293 294 295 296 297 297 298 298 299 300 300 301 301 302 302 302 302 302 302 302 301 301 300 298 297 294 292 290 289 288 287 286 285 284 283 282 281 280 280 279 278 277 276 275 273 272 272 271 270 270 270 269 269 268 268 267 266 266 265 265 265 265 264 264 264 263 263 262 261 261 260 260 259 258
290 291 291 291 291 291 292 292 292 292 293 293 295 296 296 297 297 298 298 299 300 301 301 301 302 302 303 303 303 302 302 302 301 300 299 297 295 293 291 290 289 289 288 287 286 285 284 283 282 281 281 280 279 278 277 276 275 274 273 272 272 271 270 270 269 269 269 268 268 267 267 266 266 265 265 265 264 263 263 262 261 260 260 259 259
289 290 291 291 292 292 293 293 293 293 294 295 296 296 297 297 297 298 299 299 300 300 301 301 301 302 303 303 303 303 302 302 302 301 300 298 296 293 292 291 290 290 289 288 288 287 286 285 284 283 282 281 281 280 279 278 277 276 275 275 274 273 272 272 271 270 270 269 269 269 268 268 267 266 266 265 265 264 263 263 262 261 260 259 259
288 289 290 291 291 292 292 292 293 293 294 295 296 296 297 297 298 298 299 299 300 300 300 301 301 302 303 303 303 303 303 302 302 301 300 298 296 294 293 292 291 291 291 290 289 289 288 287 286 285 284 283 282 281 280 280 279 278 277 276 276 275 274 274 273 273 272 271 271 270 270 269 268 267 266 266 265 265 264 264 263 262 261 260 260
288 289 290 291 291 291 292 292 293 294 295 295 296 296 297 297 298 298 299 299 299 300 300 301 302 302 303 303 303 303 303 303 302 301 300 298 296 295 294 294 293 292 292 291 291 290 289 288 287 286 285 284 283 282 281 280 280 279 278 278 277 276 276 275 275 275 274 274 273 272 271 270 269 268 267 266 266 265 265 264 263 263 262 262 261
288 289 290 291 291 292 292 292 293 294 295 296 296 297 297 297 298 298 299 299 300 300 301 301 302 303 303 303 303 303 303 303 302 301 300 298 297 296 296 295 294 294 293 292 292 291 290 289 288 287 286 284 283 282 281 281 280 279 279 278 277 277 276 276 276 275 275 275 274 273 272 271 270 270 269 268 267 266 266 265 264 264 263 262 262
289 290 290 291 292 292 293 293 294 295 295 296 296 297 297 297 298 298 299 299 300 300 301 302 302 303 303 303 304 304 304 303 302 301 299 299 298 297 297 296 295 294 294 293 293 292 291 290 289 287 286 285 283 282 281 281 280 279 279 278 278 277 277 277 276 276 275 275 274 273 272 271 270 270 269 269 268 267 267 266 265 264 264 263 262
291 291 292 292 293 293 294 294 295 296 296 296 297 297 297 298 298 299 299 300 300 301 301 302 303 303 304 304 304 304 304 303 302 301 300 299 299 298 297 297 296 295 294 294 293 293 292 291 290 288 287 285 284 283 282 281 280 280 279 279 278 278 277 277 277 276 276 275 274 274 273 272 271 270 269 268 268 267 266 266 265 264 264 263 262
293 293 293 294 294 295 295 295 296 296 296 297 297 298 298 299 299 299 300 300 301 301 302 303 303 304 304 305 305 304 303 302 301 301 300 300 299 298 298 297 296 295 295 294 294 293 292 291 290 288 287 286 284 283 282 281 281 280 280 280 279 279 278 278 278 277 277 276 275 275 274 273 272 272 271 270 269 267 266 266 265 264 263 262 262
294 294 295 295 296 296 296 296 296 297 297 298 298 298 299 299 299 300 300 301 301 302 303 303 304 304 305 305 304 304 303 302 302 301 301 300 300 299 298 297 296 296 295 295 295 294 293 291 290 288 287 285 284 283 282 282 281 281 281 281 280 280 280 280 279 278 278 277 276 276 275 274 273 273 272 271 270 269 267 266 265 265 264 263 262
295 295 296 296 296 296 297 297 297 298 298 299 299 299 300 300 300 301 301 302 302 303 303 304 305 305 305 305 304 303 303 302 302 301 301 300 300 299 298 298 297 297 297 296 296 295 293 292 290 289 287 286 285 284 283 283 282 282 282 281 281 281 281 280 280 279 278 277 277 276 275 274 274 273 272 271 270 269 268 267 266 265 264 263 263
296 296 296 297 297 297 298 298 298 299 299 300 300 301 301 301 301 302 302 303 303 304 304 305 305 305 305 305 304 303 303 302 302 302 301 301 300 299 299 299 298 298 298 297 296 295 294 292 291 289 288 287 285 285 284 284 283 283 282 282 282 282 281 281 280 279 279 278 277 276 276 275 274 274 273 272 271 271 270 269 268 266 265 264 263
296 297 297 298 298 298 299 299 300 300 301 301 301 302 302 302 302 303 303 303 304 304 305 305 305 305 305 304 304 303 303 303 302 302 302 301 301 300 300 300 299 299 298 297 296 295 294 293 291 290 289 287 287 286 285 285 284 284 284 283 283 283 282 282 281 281 280 279 279 278 278 277 276 275 275 275 274 273 272 271 270 268 267 266 265
297 298 298 298 298 299 300 300 301 301 302 302 303 303 303 303 303 303 304 304 305 305 306 306 306 305 305 304 304 304 304 303 303 303 302 302 301 301 301 300 300 299 298 297 296 295 294 293 292 291 290 289 288 287 287 286 286 286 285 285 285 284 284 283 283 282 281 281 280 280 280 279 279 278 277 277 276 275 274 273 272 271 269 268 266
299 299 299 299 299 300 301 301 302 302 302 303 303 303 303 303 303 304 305 305 306 306 306 306 306 305 305 305 304 304 304 304 304 303 302 302 302 302 301 301 300 300 299 298 297 296 295 294 293 292 291 290 289 289 288 288 288 287 287 287 286 286 285 285 284 283 283 282 282 282 281 281 280 280 279 278 277 276 275 274 273 272 271 270 268
299 299 299 299 300 300 301 301 302 302 303 303 303 303 303 304 304 304 305 306 306 307 306 306 306 306 305 305 305 305 305 304 304 303 303 303 303 302 302 302 301 300 299 298 297 296 295 295 294 293 292 292 291 290 290 289 289 289 288 288 288 287 287 286 286 285 284 284 284 283 283 282 281 281 280 279 278 277 276 275 273 272 271 270 269
299 299 299 299 300 300 300 301 302 302 303 303 303 304 304 304 304 305 305 306 307 307 307 306 306 306 306 306 306 305 305 304 304 304 303 303 303 303 302 302 301 300 299 298 297 297 296 296 295 294 294 293 292 292 292 291 291 290 290 290 289 289 288 287 287 286 286 285 285 285 284 283 282 281 280 279 278 277 276 275 274 273 272 271 270
298 298 299 299 299 300 300 301 301 302 303 303 303 304 304 304 304 305 306 307 307 307 307 307 307 306 306 306 306 305 305 304 304 304 304 304 304 303 303 302 301 300 299 298 298 298 297 297 296 296 295 294 294 293 293 293 293 292 291 291 291 290 290 289 288 287 287 286 286 286 285 284 283 281 280 280 279 278 277 276 275 273 272 271 270
298 298 299 299 299 300 300 301 302 302 303 303 303 304 304 304 305 306 307 307 307 307 307 307 307 306 306 306 306 305 305 305 305 305 305 305 304 304 303 302 301 300 300 300 299 299 298 298 297 296 296 295 295 295 295 295 294 293 292 292 292 291 291 290 289 289 288 287 286 285 284 283 283 282 281 280 280 279 277 276 275 274 273 271 270
297 298 298 298 299 300 301 301 302 302 303 303 303 303 304 304 305 306 307 307 307 307 307 307 307 306 306 306 306 306 306 306 306 306 306 305 305 304 304 302 301 301 301 300 300 300 299 299 298 297 297 297 296 296 296 296 295 295 294 293 293 292 291 291 290 290 289 289 287 286 285 284 283 282 281 281 280 279 278 277 276 275 273 272 271
297 297 297 298 299 300 300 301 302 302 303 303 303 303 304 305 306 306 307 307 307 307 307 307 307 306 306 306 306 306 306 306 306 306 306 306 305 304 303 303 302 302 302 301 301 301 300 299 299 298 298 298 298 298 298 298 297 296 295 295 294 293 292 291 291 290 289 289 288 287 286 286 285 284 283 281 280 278 277 277 276 275 274 273 272
296 296 297 298 299 299 300 301 302 302 303 303 303 303 304 305 306 306 307 307 307 307 307 307 307 307 307 307 307 307 307 307 307 306 306 306 305 304 304 303 303 302 302 302 302 301 300 299 299 299 299 299 299 299 299 298 297 297 296 296 295 294 293 292 291 291 290 289 288 287 287 286 286 285 284 283 281 279 277 276 276 275 274 273 272
296 297 297 298 299 299 300 301 302 302 302 302 303 303 304 305 306 306 307 307 307 307 307 307 307 307 307 307 307 307 307 307 307 307 306 306 305 305 304 304 303 303 303 302 301 301 300 300 300 300 300 300 300 300 299 299 298 297 297 296 296 295 294 293 292 292 291 290 289 288 287 287 287 286 285 284 282 281 279 278 276 275 274 274 273
296 297 298 298 299 299 300 301 302 302 302 302 303 303 304 305 306 306 306 306 306 307 307 307 307 307 307 307 307 307 307 307 307 307 306 306 306 305 305 304 304 303 303 302 301 301 301 301 301 301 302 301 301 300 300 299 298 297 297 297 297 296 295 294 294 293 292 291 290 289 288 288 287 286 285 284 283 282 281 280 278 276 275 274 273
297 297 298 298 299 300 300 301 301 301 302 302 303 304 305 305 306 306 306 306 307 307 307 307 307 307 307 307 307 307 307 307 307 307 307 306 306 306 305 305 304 304 303 302 302 302 302 302 302 302 302 302 302 301 300 299 298 298 298 298 297 297 296 295 295 294 293 292 291 290 289 288 288 287 286 285 284 283 282 280 279 278 277 275 274
297 297 297 298 299 300 300 301 301 301 302 303 303 304 305 305 305 306 306 306 307 307 307 307 307 307 307 307 308 308 308 308 307 307 307 307 306 306 306 305 304 304 303 303 303 303 303 303 303 303 303 303 302 301 300 300 299 299 299 299 298 297 297 296 296 295 294 293 292 291 290 289 288 288 287 286 285 284 283 281 280 279 278 278 277
296 296 297 298 299 300 300 301 301 302 302 303 303 304 304 305 305 305 306 307 307 307 307 307 307 307 308 308 308 308 308 308 308 308 307 307 307 306 306 305 304 304 303 303 303 303 303 303 304 304 304 303 303 302 301 300 301 301 300 299 298 298 298 298 297 296 296 295 293 292 291 290 289 289 288 287 286 285 283 281 280 279 279 279 278
296 297 298 299 300 300 300 301 301 302 302 303 303 304 304 305 305 306 306 306 306 306 307 307 307 308 308 308 308 308 308 308 308 308 308 307 307 307 306 305 304 304 304 304 304 304 304 304 305 305 305 304 303 302 302 302 302 302 301 300 299 299 299 299 298 298 297 296 294 293 291 291 291 290 289 288 287 285 284 282 280 280 279 279 278
297 298 299 299 300 300 300 301 301 302 302 303 303 304 304 304 305 306 306 306 306 306 307 307 307 308 308 308 308 308 308 308 308 308 307 307 307 307 306 305 304 304 305 305 305 305 305 305 306 306 305 305 304 303 302 302 302 303 302 301 300 301 300 300 299 299 299 297 295 293 292 292 292 291 290 288 287 285 284 283 281 280 279 278 278
298 298 299 300 300 300 300 301 301 302 302 302 303 303 304 304 305 305 305 305 306 306 306 307 307 308 308 308 308 308 308 308 308 308 307 307 307 306 306 305 305 305 305 305 305 305 306 306 306 306 306 305 304 303 303 303 303 303 302 302 302 302 301 300 301 301 299 298 296 294 293 293 293 292 290 289 287 285 284 283 281 280 279 279 279
299 299 300 300 300 300 301 301 301 301 302 302 303 303 303 304 305 305 305 305 306 306 307 307 308 308 308 308 308 308 308 308 308 308 308 307 307 306 305 305 305 306 306 306 306 306 306 306 307 307 306 305 305 304 304 304 304 303 302 302 303 303 302 301 302 301 300 298 295 294 293 294 294 293 291 289 287 285 284 282 281 280 279 279 279
299 300 300 300 300 300 301 301 301 301 302 302 303 303 303 304 305 304 304 305 306 306 307 307 308 308 308 308 308 308 308 308 308 308 308 307 306 306 305 305 306 306 306 306 306 306 307 307 307 307 306 306 306 305 305 305 305 304 304 304 304 303 303 302 303 302 300 298 295 293 294 295 295 293 291 290 288 286 285 283 281 281 280 280 280
300 300 300 300 300 300 300 301 301 301 302 302 302 303 303 304 304 304 305 305 306 306 307 307 307 307 307 308 308 308 308 308 308 308 308 307 306 306 306 306 306 307 307 307 307 307 307 307 308 307 306 306 306 306 306 306 305 305 305 305 305 304 304 303 303 302 300 297 295 293 295 296 295 293 292 290 288 287 285 284 282 281 280 280 279
300 300 300 300 300 300 300 301 301 302 302 302 302 302 303 304 304 304 305 305 306 306 307 307 307 307 307 308 308 308 308 308 308 308 307 307 306 306 306 306 307 307 307 307 307 307 307 308 308 307 307 307 307 306 306 306 306 305 305 306 306 305 304 304 304 303 301 298 295 294 296 296 294 293 292 290 289 288 287 285 284 282 281 280 278
300 300 300 300 300 300 300 301 301 301 302 301 301 302 303 303 304 304 304 305 306 306 307 307 307 307 308 308 308 308 308 308 308 308 307 307 306 307 307 307 307 308 308 307 307 307 307 308 308 307 307 307 307 307 306 306 306 306 306 306 306 305 304 303 304 304 302 298 296 296 297 296 294 293 292 291 290 289 288 287 286 286 284 282 280
300 300 300 300 300 300 300 300 300 301 301 301 301 302 303 303 304 304 304 305 306 306 306 306 307 307 308 308 309 308 308 308 308 308 307 307 307 307 307 307 307 308 308 308 308 308 307 308 308 307 307 308 307 306 306 305 305 305 306 306 305 304 303 303 304 304 301 297 297 298 298 296 295 294 293 292 291 291 290 290 289 288 286 284 283
300 299 299 299 299 299 300 300 300 300 300 300 301 302 303 303 304 304 304 305 306 306 306 306 307 308 308 309 309 308 308 308 308 308 308 308 308 307 307 307 308 308 308 308 308 308 308 307 307 307 307 308 307 307 306 306 306 306 307 307 306 304 303 304 306 305 300 297 298 299 298 297 295 295 294 293 292 291 290 289 288 287 286 285 284
299 299 298 298 299 299 299 299 299 300 300 300 301 302 303 303 303 303 304 305 306 306 306 306 307 308 308 309 309 308 308 308 308 308 308 308 308 308 308 308 308 308 308 308 308 308 308 308 308 308 308 308 308 308 308 308 308 308 308 307 305 303 304 306 306 304 301 299 300 299 298 297 297 295 295 294 293 291 291 291 291 291 290 288 286